| time (UTC) | temp F | wind direction | speed knots | gust knots | rain 1hr in | rain 24hr in | rain mn in | humidity % | barometer mb |
| 20260905204517 | 97 | 96 | 11.3 | 18.2 | 0.00 | 0.00 | 0.00 | 32 | 1006.9 |
| 20260905203011 | 96 | 141 | 13.0 | 20.0 | 0.00 | 0.00 | 0.00 | 32 | 1007.0 |
| 20260905201510 | 96 | 113 | 13.0 | 18.2 | 0.00 | 0.00 | 0.00 | 33 | 1007.1 |
| 20260905200008 | 95 | 108 | 11.3 | 18.2 | 0.00 | 0.00 | 0.00 | 34 | 1007.3 |
| 20260905194504 | 94 | 115 | 11.3 | 15.6 | 0.00 | 0.00 | 0.00 | 37 | 1007.4 |
| 20260905193005 | 94 | 116 | 11.3 | 19.1 | 0.00 | 0.00 | 0.00 | 37 | 1007.5 |
| 20260905191502 | 94 | 105 | 11.3 | 16.5 | 0.00 | 0.00 | 0.00 | 37 | 1007.6 |
| 20260905184602 | 93 | 122 | 10.4 | 16.5 | 0.00 | 0.00 | 0.00 | 40 | 1007.9 |
| 20260905183100 | 93 | 91 | 11.3 | 16.5 | 0.00 | 0.00 | 0.00 | 40 | 1008.1 |
| 20260905181609 | 92 | 97 | 9.6 | 15.6 | 0.00 | 0.00 | 0.00 | 42 | 1008.4 |
| 20260905180054 | 90 | 105 | 7.8 | 13.0 | 0.00 | 0.00 | 0.00 | 44 | 1008.6 |
| 20260905174555 | 90 | 108 | 8.7 | 16.5 | 0.00 | 0.00 | 0.00 | 44 | 1008.6 |
| 20260905173051 | 90 | 120 | 9.6 | 15.6 | 0.00 | 0.00 | 0.00 | 43 | 1008.8 |
| 20260905171550 | 89 | 125 | 9.6 | 15.6 | 0.00 | 0.00 | 0.00 | 44 | 1008.7 |
| 20260905170047 | 88 | 113 | 7.0 | 14.8 | 0.00 | 0.00 | 0.00 | 45 | 1008.6 |
| 20260905164544 | 88 | 103 | 7.8 | 10.4 | 0.00 | 0.00 | 0.00 | 46 | 1008.6 |
| 20260905163041 | 86 | 122 | 5.2 | 8.7 | 0.00 | 0.00 | 0.00 | 49 | 1008.7 |
| 20260905161537 | 85 | 79 | 3.5 | 9.6 | 0.00 | 0.00 | 0.00 | 51 | 1008.7 |
| 20260905154531 | 83 | 77 | 5.2 | 7.8 | 0.00 | 0.00 | 0.00 | 55 | 1008.6 |
| 20260905153030 | 82 | 78 | 4.3 | 7.8 | 0.00 | 0.00 | 0.00 | 56 | 1008.3 |
| 20260905151534 | 82 | 74 | 3.5 | 6.1 | 0.00 | 0.00 | 0.00 | 58 | 1008.3 |
| 20260905150030 | 81 | 39 | 2.6 | 4.3 | 0.00 | 0.00 | 0.00 | 57 | 1008.3 |
| 20260905144527 | 83 | 77 | 1.7 | 3.5 | 0.00 | 0.00 | 0.00 | 55 | 1008.1 |
| 20260905143026 | 82 | 187 | 0.0 | 0.0 | 0.00 | 0.00 | 0.00 | 55 | 1008.1 |
| 20260905141524 | 80 | 202 | 0.0 | 0.0 | 0.00 | 0.00 | 0.00 | 58 | 1008.1 |
| 20260905140023 | 78 | 213 | 0.0 | 0.0 | 0.00 | 0.00 | 0.00 | 63 | 1008.1 |
| 20260905134521 | 75 | 223 | 0.0 | 0.0 | 0.00 | 0.00 | 0.00 | 70 | 1008.1 |
| 20260905133022 | 73 | 254 | 0.0 | 0.0 | 0.00 | 0.00 | 0.00 | 74 | 1007.9 |
| 20260905131520 | 71 | 256 | 0.0 | 0.0 | 0.00 | 0.00 | 0.00 | 80 | 1008.0 |
| 20260905130020 | 68 | 257 | 0.0 | 0.0 | 0.00 | 0.00 | 0.00 | 83 | 1007.9 |
| 20260905124518 | 67 | 236 | 0.0 | 0.0 | 0.00 | 0.00 | 0.00 | 84 | 1007.7 |
| 20260905123017 | 67 | 236 | 0.0 | 0.0 | 0.00 | 0.00 | 0.00 | 85 | 1007.4 |
| 20260905121515 | 67 | 207 | 0.0 | 0.0 | 0.00 | 0.00 | 0.00 | 81 | 1007.5 |
| 20260905120013 | 69 | 252 | 0.0 | 0.0 | 0.00 | 0.00 | 0.00 | 78 | 1007.3 |
| 20260905114513 | 70 | 257 | 0.0 | 0.0 | 0.00 | 0.00 | 0.00 | 77 | 1007.1 |
| 20260905113012 | 71 | 257 | 0.0 | 0.0 | 0.00 | 0.00 | 0.00 | 76 | 1007.1 |
| 20260905111512 | 71 | 265 | 0.0 | 0.0 | 0.00 | 0.00 | 0.00 | 77 | 1007.1 |
| 20260905110012 | 69 | 349 | 0.0 | 0.0 | 0.00 | 0.00 | 0.00 | 82 | 1007.2 |
| 20260905104507 | 71 | 261 | 0.0 | 0.0 | 0.00 | 0.00 | 0.00 | 77 | 1007.3 |
| 20260905103017 | 71 | 259 | 0.0 | 0.0 | 0.00 | 0.00 | 0.00 | 79 | 1007.2 |
| 20260905101506 | 71 | 70 | 0.0 | 0.0 | 0.00 | 0.00 | 0.00 | 80 | 1007.5 |
| 20260905100002 | 72 | 255 | 0.0 | 0.0 | 0.00 | 0.00 | 0.00 | 77 | 1007.7 |
| 20260905094600 | 73 | 230 | 0.9 | 2.6 | 0.00 | 0.00 | 0.00 | 76 | 1007.6 |
| 20260905093058 | 75 | 179 | 2.6 | 3.5 | 0.00 | 0.00 | 0.00 | 72 | 1007.8 |
| 20260905091620 | 75 | 220 | 0.0 | 0.0 | 0.00 | 0.00 | 0.00 | 71 | 1007.6 |
| 20260905090117 | 75 | 221 | 0.0 | 2.6 | 0.00 | 0.00 | 0.00 | 70 | 1007.4 |
| 20260905084606 | 75 | 245 | 2.6 | 4.3 | 0.00 | 0.00 | 0.00 | 70 | 1007.3 |
| 20260905083049 | 77 | 172 | 1.7 | 2.6 | 0.00 | 0.00 | 0.00 | 65 | 1007.6 |
| 20260905081546 | 78 | 151 | 0.0 | 2.6 | 0.00 | 0.00 | 0.00 | 62 | 1007.6 |
| 20260905080050 | 78 | 162 | 0.9 | 2.6 | 0.00 | 0.00 | 0.00 | 62 | 1007.3 |
| 20260905074542 | 78 | 171 | 0.9 | 3.5 | 0.00 | 0.00 | 0.00 | 61 | 1007.2 |
| 20260905073039 | 79 | 135 | 2.6 | 4.3 | 0.00 | 0.00 | 0.00 | 59 | 1007.2 |
| 20260905071538 | 79 | 166 | 4.3 | 7.0 | 0.00 | 0.00 | 0.00 | 60 | 1007.2 |
| 20260905070036 | 79 | 169 | 5.2 | 7.8 | 0.00 | 0.00 | 0.00 | 59 | 1007.1 |
| 20260905064535 | 79 | 214 | 5.2 | 7.8 | 0.00 | 0.00 | 0.00 | 59 | 1006.9 |
| 20260905063032 | 80 | 182 | 5.2 | 7.8 | 0.00 | 0.00 | 0.00 | 58 | 1007.1 |
| 20260905061528 | 81 | 171 | 5.2 | 10.4 | 0.00 | 0.00 | 0.00 | 56 | 1007.0 |
| 20260905060026 | 81 | 179 | 5.2 | 8.7 | 0.00 | 0.00 | 0.00 | 55 | 1006.7 |
| 20260905054523 | 82 | 141 | 6.1 | 10.4 | 0.00 | 0.00 | 0.00 | 54 | 1006.6 |
| 20260905053020 | 83 | 193 | 7.8 | 12.2 | 0.00 | 0.00 | 0.00 | 52 | 1006.5 |
| 20260905051517 | 83 | 167 | 7.8 | 13.9 | 0.00 | 0.00 | 0.00 | 52 | 1006.6 |
| 20260905050017 | 83 | 188 | 7.8 | 11.3 | 0.00 | 0.00 | 0.00 | 52 | 1006.8 |
| 20260905044516 | 83 | 167 | 7.0 | 11.3 | 0.00 | 0.00 | 0.00 | 51 | 1006.9 |
| 20260905043022 | 84 | 177 | 7.8 | 12.2 | 0.00 | 0.00 | 0.00 | 50 | 1006.9 |
| 20260905041514 | 84 | 168 | 9.6 | 12.2 | 0.00 | 0.00 | 0.00 | 50 | 1007.1 |
| 20260905040013 | 84 | 160 | 7.0 | 11.3 | 0.00 | 0.00 | 0.00 | 50 | 1007.2 |
| 20260905034516 | 84 | 150 | 6.1 | 9.6 | 0.00 | 0.00 | 0.00 | 50 | 1007.0 |
| 20260905033020 | 85 | 146 | 6.1 | 10.4 | 0.00 | 0.00 | 0.00 | 49 | 1006.9 |
| 20260905031512 | 86 | 141 | 5.2 | 11.3 | 0.00 | 0.00 | 0.00 | 48 | 1006.8 |
| 20260905030022 | 87 | 134 | 7.8 | 13.9 | 0.00 | 0.00 | 0.00 | 46 | 1006.6 |
| 20260905024512 | 87 | 129 | 9.6 | 13.9 | 0.00 | 0.00 | 0.00 | 45 | 1006.3 |
| 20260905023010 | 87 | 127 | 10.4 | 13.9 | 0.00 | 0.00 | 0.00 | 45 | 1006.2 |
| 20260905021509 | 87 | 107 | 7.8 | 13.0 | 0.00 | 0.00 | 0.00 | 46 | 1006.1 |
| 20260905020010 | 88 | 127 | 8.7 | 12.2 | 0.00 | 0.00 | 0.00 | 46 | 1005.7 |
| 20260905014510 | 88 | 119 | 7.8 | 13.0 | 0.00 | 0.00 | 0.00 | 46 | 1005.3 |
| 20260905013012 | 90 | 124 | 7.8 | 13.9 | 0.00 | 0.00 | 0.00 | 44 | 1005.2 |
| 20260905011508 | 90 | 104 | 7.8 | 14.8 | 0.00 | 0.00 | 0.00 | 43 | 1005.0 |
| 20260905010013 | 92 | 137 | 9.6 | 14.8 | 0.00 | 0.00 | 0.00 | 42 | 1004.9 |
| 20260905004514 | 93 | 124 | 8.7 | 11.3 | 0.00 | 0.00 | 0.00 | 40 | 1004.8 |
| 20260905003009 | 94 | 121 | 7.0 | 11.3 | 0.00 | 0.00 | 0.00 | 39 | 1004.9 |
| 20260905001526 | 96 | 117 | 5.2 | 13.0 | 0.00 | 0.00 | 0.00 | 38 | 1004.8 |
| 20260905000007 | 96 | 141 | 7.8 | 13.0 | 0.00 | 0.00 | 0.00 | 36 | 1004.8 |
| 20260904234514 | 96 | 131 | 8.7 | 12.2 | 0.00 | 0.00 | 0.00 | 37 | 1004.7 |
| 20260904233014 | 95 | 117 | 5.2 | 11.3 | 0.00 | 0.00 | 0.00 | 37 | 1004.6 |
| 20260904231505 | 96 | 159 | 7.0 | 10.4 | 0.00 | 0.00 | 0.00 | 36 | 1004.6 |
| 20260904230005 | 96 | 149 | 6.1 | 12.2 | 0.00 | 0.00 | 0.00 | 35 | 1004.6 |
| 20260904224506 | 98 | 141 | 9.6 | 16.5 | 0.00 | 0.00 | 0.00 | 35 | 1004.6 |
| 20260904223002 | 97 | 142 | 7.8 | 14.8 | 0.00 | 0.00 | 0.00 | 35 | 1004.6 |
| 20260904221603 | 97 | 123 | 12.2 | 17.4 | 0.00 | 0.00 | 0.00 | 35 | 1004.6 |
| 20260904220059 | 97 | 106 | 8.7 | 15.6 | 0.00 | 0.00 | 0.00 | 36 | 1004.8 |
| 20260904214602 | 97 | 117 | 11.3 | 16.5 | 0.00 | 0.00 | 0.00 | 35 | 1004.8 |
| 20260904213055 | 96 | 127 | 8.7 | 13.0 | 0.00 | 0.00 | 0.00 | 34 | 1005.0 |
| 20260904211555 | 96 | 148 | 8.7 | 13.0 | 0.00 | 0.00 | 0.00 | 35 | 1005.2 |